Tracking 29892 objects as of 21-Nov-2024
HD Live streaming from Space Station
objects crossing your sky now

FENGYUN 1C DEB

Track FENGYUN 1C DEB now!
10-day predictions


NORAD ID: 37406
Int'l Code: 1999-025EFY
Perigee: 781.5 km
Apogee: 1,004.2 km
Inclination: 98.5 °
Period: 102.7 minutes
Semi major axis: 7263 km
RCS: 0.0007 m2 (small)
Launch date: May 10, 1999
Source: People's Republic of China (PRC)
Launch site: Taiyaun Space Center, China (TSC)

Note: This is SATELLITE DEBRIS
Your satellite tracking list
Your tracking list is empty




NASA's NSSDC Master Catalog

Two Line Element Set (TLE):
1 37406U 99025EFY 24320.47532782  .00003817  00000-0  22672-2 0  9994
2 37406  98.4747 213.6273 0153313 294.7414 240.6151 14.02347618757040
Source of the keplerian elements: AFSPC